Date,TemperatureHighF,TemperatureAvgF,TemperatureLowF,DewpointHighF,DewpointAvgF,DewpointLowF,HumidityHigh,HumidityAvg,HumidityLow,PressureMaxIn,PressureMinIn,WindSpeedMaxMPH,WindSpeedAvgMPH,GustSpeedMaxMPH,PrecipitationSumIn
2013-2-1,28.2,21.8,14.7,25.5,12.5,5.8,99,68,52,30.21,29.69,25,10,40,0.00
2013-2-2,24.6,19.3,11.1,24.2,15.0,6.3,100,84,64,30.21,29.86,11,3,17,0.00
2013-2-3,34.7,26.6,20.7,32.9,25.6,17.7,100,96,73,29.87,29.68,17,4,24,0.00
2013-2-4,36.3,27.6,20.7,26.4,19.0,13.9,85,70,53,29.94,29.75,17,5,27,0.00
2013-2-5,36.7,32.1,29.3,35.2,30.4,25.0,100,94,79,29.81,29.71,5,1,8,0.00
2013-2-6,40.6,33.9,28.4,34.5,29.8,22.3,100,86,66,30.21,29.80,15,5,23,0.00
2013-2-7,41.2,31.7,25.5,31.6,25.8,20.8,97,79,61,30.29,30.06,4,1,9,0.00
2013-2-8,40.8,33.6,30.6,40.6,32.6,25.4,100,96,82,30.06,29.65,21,5,31,0.05
2013-2-9,39.7,30.3,24.6,26.0,21.0,17.0,88,70,48,30.25,29.81,26,10,39,0.00
2013-2-10,49.6,34.0,23.2,24.3,19.6,15.5,74,58,34,30.32,30.07,6,2,12,0.00
2013-2-11,54.9,42.2,32.2,54.4,39.4,24.3,99,91,45,30.09,29.57,19,3,31,0.18
2013-2-12,56.5,45.0,19.2,36.2,31.4,9.7,76,61,33,29.88,29.70,24,8,36,0.00
2013-2-13,44.1,35.3,30.4,34.4,30.9,27.9,100,85,66,29.83,29.55,4,1,10,0.00
2013-2-14,52.9,38.4,28.8,37.9,32.3,28.3,100,81,55,29.88,29.65,11,2,17,0.07
2013-2-15,55.8,40.0,32.4,41.2,34.3,29.4,100,82,54,29.91,29.80,12,3,21,0.07
2013-2-16,37.6,31.9,25.9,34.8,28.3,19.8,100,87,66,29.88,29.72,11,2,18,0.00
2013-2-17,29.3,23.5,19.8,20.6,15.2,7.7,89,71,53,30.04,29.71,23,11,35,0.01
2013-2-18,46.2,28.7,16.7,17.7,12.2,7.3,71,52,33,30.22,29.99,21,6,30,0.00
2013-2-19,51.1,37.4,32.5,46.2,30.3,16.3,100,77,49,30.00,29.57,22,5,34,0.04
2013-2-20,34.5,27.2,21.7,25.5,16.4,10.1,76,64,54,30.01,29.71,23,12,34,0.00
2013-2-21,37.2,27.1,20.8,21.1,16.6,12.1,77,65,50,30.19,29.97,38,9,38,0.00
2013-2-22,31.8,28.4,24.8,29.1,25.2,18.1,100,88,70,30.23,30.05,4,1,10,0.00
2013-2-23,49.8,37.7,29.3,49.6,37.4,29.1,100,99,99,30.06,29.70,3,0,6,0.01
2013-2-24,48.4,37.2,27.7,39.4,31.8,23.0,100,82,54,29.98,29.68,21,7,30,0.00
2013-2-25,54.0,35.9,24.4,31.3,25.5,21.5,90,68,39,30.09,29.97,8,2,14,0.00
2013-2-26,39.2,34.8,29.7,38.6,32.4,25.8,99,91,72,30.08,29.51,8,1,25,0.56
2013-2-27,54.5,42.5,34.7,48.6,38.7,34.5,100,87,62,29.59,29.42,14,6,22,0.01
2013-2-28,43.9,38.8,32.7,39.4,33.5,29.9,100,82,65,29.61,29.52,17,7,22,0.00